Regional Weather Roundup
Issued by NWS

Home | Current Version | Previous Version | Graphics & Text | Print | Product List | Glossary On
Versions: 1 2 3 4 5 6 7 8 9 10 11 12 13 14 15 16 17 18 19 20 21 22 23 24 25 26 27 28 29 30 31 32 33 34 35 36 37 38 39 40 41 42 43 44 45 46 47 48 49 50
000
ASUS43 KFSD 240910
RWRSD

WEATHER ROUNDUP FOR SOUTH DAKOTA
NATIONAL WEATHER SERVICE SIOUX FALLS SD
400 AM CDT SUN MAY 24 2015

NOTE: "FAIR" INDICATES FEW OR NO CLOUDS BELOW 12,000 FEET WITH NO
SIGNIFICANT WEATHER AND/OR OBSTRUCTIONS TO VISIBILITY.


SDZ001>005-009-010-012>017-241000-
NORTHWEST AND NORTH CENTRAL SOUTH DAKOTA

CITY           SKY/WX    TMP DP  RH WIND       PRES   REMARKS
BUFFALO          N/A     50  48  93 NE7       29.98S
FAITH            N/A     53  50  89 E10       30.03F
MOBRIDGE       CLOUDY    55  52  89 E13       30.02S
$$

SDZ012>016-024>037-041>051-057-063-072>074-241000-
SOUTHWEST AND SOUTH CENTRAL SOUTH DAKOTA

CITY           SKY/WX    TMP DP  RH WIND       PRES   REMARKS
RAPID CTY ARPT LGT RAIN  53  52  96 E7        29.99S FOG
PIERRE         LGT RAIN  54  53  97 E8        30.00F
CUSTER         LGT RAIN  47  45  93 E8        29.99F FOG
ELLSWORTH AFB  LGT RAIN  53  53 100 E8        29.98
PHILIP         CLOUDY    54  54 100 E9        29.99F
PINE RIDGE     CLOUDY    53  50  89 E12       29.94F
SPEARFISH      LGT RAIN  50  50 100 E10G17    30.01F
WINNER         CLOUDY    56  53  90 E7        29.98F FOG
$$

SDZ004>011-016>023-039-040-241000-
NORTHEAST SOUTH DAKOTA

CITY           SKY/WX    TMP DP  RH WIND       PRES   REMARKS
ABERDEEN       CLOUDY    55  48  77 E3        30.05S
WATERTOWN      CLOUDY    56  48  74 E5        30.05S
BROOKINGS      CLOUDY    57  55  94 SE8       30.05F
SISSETON         N/A     54  50  86 CALM      30.07S
$$

SDZ017-020-022-023-036>040-048>070-241000-
SOUTHEAST SOUTH DAKOTA

CITY           SKY/WX    TMP DP  RH WIND       PRES   REMARKS
SIOUX FALLS    LGT RAIN  58  57  97 E7        30.02F
HURON          LGT RAIN  56  53  90 S3        30.03R
CHAMBERLAIN    RAIN      55  55  99 E5        30.00F
MITCHELL       CLOUDY    57  56  96 E5        30.02S FOG
YANKTON        CLOUDY    57  55  94 E10       29.98F
$$

ABBREVIATIONS USED IN REMARKS
   TC - TEMPERATURE IN CELSIUS
  WCI - WIND CHILL INDEX
   HX - HEAT INDEX
  VSB - VISIBILITY



USA.gov is the U.S. government's official web portal to all federal, state and local government web resources and services.